Regional Weather Roundup
Issued by NWS

Home | Current Version | Previous Version | Text Only | Print | Product List | Glossary Off
Versions: 1 2 3 4 5 6 7 8 9 10 11 12 13 14 15 16 17 18 19 20 21 22 23 24 25 26 27

000
ASUS45 KCYS 301110
RWRWY

WYOMING REGIONAL WEATHER ROUNDUP
NATIONAL WEATHER SERVICE CHEYENNE WY
500 AM MDT SAT APR 30 2016

NOTE:  "FAIR" INDICATES FEW OR NO CLOUDS BELOW 12,000 FEET
WITH NO SIGNIFICANT WEATHER AND/OR OBSTRUCTIONS TO VISIBILITY.

WYZ001-301200-
YELLOWSTONE NATIONAL PARK

CITY           SKY/WX    TMP DP  RH WIND       PRES   REMARKS
LK YELLOWSTONE   N/A     29  26  89 CALM      30.01R
W YELLOWSTONE  NOT AVBL

$$
WYZ002>013-054>058-071-098>099-301200-
NORTHERN WYOMING

CITY           SKY/WX    TMP DP  RH WIND       PRES   REMARKS
JACKSON        FAIR      34  34 100 N12       29.96R WCI  25
CODY           CLOUDY    37  34  87 NE9       30.02R WCI  31
GREYBULL       CLOUDY    44  35  70 NW3       29.99R
WORLAND        CLOUDY    41  37  86 SW3       30.00R
SHERIDAN       CLOUDY    40  36  86 CALM      30.07R
BUFFALO          N/A    N/A N/A N/A MISG      30.05R
GILLETTE       CLOUDY    37  34  89 NE14      30.03R WCI  28
HULETT         DRIZZLE   37  36  93 NE8       30.06S WCI  31
NEWCASTLE      CLOUDY    39  30  70 N3        30.00R

$$
WYZ014>020-022>026-101>103-301200-
CENTRAL WYOMING

CITY           SKY/WX    TMP DP  RH WIND       PRES   REMARKS
BIG PINEY      LGT SNOW  32  30  92 S6        29.96S FOG     WCI  26
PINEDALE       LGT SNOW  32  32 100 W7        29.97R WCI  26
DUBOIS         LGT SNOW  28  28 100 S3        29.98S
LANDER         FLURRIES  33  32  96 NW5       29.99R WCI  29
RIVERTON       LGT RAIN  35  34  96 NW8       30.00R WCI  29
CASPER         LGT SNOW  32  31  96 N6        29.98S FOG     WCI  26
DOUGLAS        LGT SNOW  32  32 100 NW7       29.98F VSB 1   WCI  26

$$
WYZ021-027>030-104>119-301200-
SOUTHERN WYOMING

CITY           SKY/WX    TMP DP  RH WIND       PRES   REMARKS
EVANSTON       MOCLDY    32  27  81 NE6       29.93R WCI  26
KEMMERER       FLURRIES  32  28  86 CALM      29.95S
FORT BRIDGER   FLURRIES  32  32 100 E6        29.98R WCI  26
ROCK SPRINGS   LGT SNOW  31  28  89 NE12      29.96R FOG     WCI  22
DIXON          CLOUDY    33  29  84 N10       29.90S WCI  25
RAWLINS        CLOUDY    29  27  92 NE8       29.93R FOG     WCI  21
SARATOGA       FLURRIES  30  28  93 N8        29.91R WCI  23
LARAMIE        LGT SNOW  25  24  96 N12       29.87R FOG     WCI  14
CHEYENNE       CLOUDY    28  26  92 N12       29.87F WCI  18
TORRINGTON     LGT SNOW  33  32  96 N7        29.92S FOG     WCI  27
PINE BLUFFS    LGT SNOW  30  30 100 N13       29.88F WCI  20

$$




USA.gov is the U.S. government's official web portal to all federal, state and local government web resources and services.